Regional Weather Roundup
Issued by NWS Jackson, KY

Home | Current Version | Previous Version | Text Only | Print | Product List | Glossary Off
Versions: 1 2 3 4 5 6 7 8 9 10 11 12 13 14 15 16 17 18 19 20 21 22 23 24 25 26 27 28 29 30 31 32 33 34 35 36 37 38 39 40 41 42 43 44 45 46 47 48 49 50

000
ASUS43 KJKL 262205
RWRJKL

EAST KENTUCKY HOURLY WEATHER ROUNDUP
NATIONAL WEATHER SERVICE JACKSON KY
500 PM EST FRI DEC 26 2014

NOTE: "FAIR" INDICATES FEW OR NO CLOUDS BELOW 12,000 FEET WITH
NO SIGNIFICANT WEATHER AND/OR OBSTRUCTIONS TO VISIBILITY.

* THESE REPORTS ARE NOT UNDER NWS QUALITY CONTROL AND MAY NOT
  REPORT WEATHER SUCH AS PRECIPITATION AND FOG.

KYZ079-080-083-085-087-088-110-112-115-119-120-262300
...EASTERN KENTUCKY...

CITY           SKY/WX    TMP DP  RH WIND       PRES   REMARKS
JACKSON        PTCLDY    52  26  36 VRB3      30.24S
LONDON         PTCLDY    53  27  36 S6        30.24F
SOMERSET*      CLEAR     52  32  46 S5        30.25S
MONTICELLO*    CLEAR     53  35  50 CALM      30.26S
MIDDLESBORO*   PTCLDY    49  32  51 CALM      30.29R
HARLAN APT*    MOCLDY    52  28  40 SE5       30.26F
BLACK MTN*       N/A     39  23  52 S6          N/A  WCI  35
PIKEVILLE APT* CLEAR     52  30  43 CALM      30.26R
BIG SANDY*     PTCLDY    53  31  41 S3        30.24F
MOREHEAD APT*  MOCLDY    50  32  50 S7        30.25R
$$

KYZ035-036-041-042-044-050-067-078-099-262300
...CENTRAL KENTUCKY...

CITY           SKY/WX    TMP DP  RH WIND       PRES   REMARKS
MT STERLING*   CLEAR     50  34  53 SW5       30.24S
FLEMING/MASON* CLEAR     49  34  56 SW6       30.23R
DANVILLE*      CLEAR     48  32  53 SW8       30.23S
RICHMOND*      CLEAR     50  30  46 SW7       30.23R
LEXINGTON      CLEAR     50  34  54 S9        30.22S
FRANKFORT      PTCLDY    50  33  52 S9        30.20S
$$

KYZ091>093-OHZ055-061-077-WVZ005-015-034-035-042-262300
...SOUTHERN OHIO/WEST VIRGINIA...

CITY           SKY/WX    TMP DP  RH WIND       PRES   REMARKS
COVINGTON      CLOUDY    50  33  52 S9        30.17F
COLUMBUS       CLOUDY    46  36  68 S7        30.19R
DAYTON         CLOUDY    49  37  63 S8        30.16R
WILMINGTON     CLOUDY    45  37  73 S6        30.18R
HUNTINGTON     MOCLDY    49  32  52 S5        30.23F
CHARLESTON     CLOUDY    50  29  44 S6        30.24S
PINEVILLE*     MOCLDY    42  38  84 MISG      30.31S
BECKLEY        MOCLDY    46  19  34 CALM      30.26R
BLUEFIELD      MOCLDY    50  21  32 NW3       30.27R
$$

VAZ002-007-008-TNZ017-027-036-066-071-262300
...SOUTHWEST VIRGINIA/EAST TENNESSEE...

CITY           SKY/WX    TMP DP  RH WIND       PRES   REMARKS
WISE*          MOCLDY    46  25  42 SW6       30.28R
JONESVILLE*    MOCLDY    50  27  40 CALM      30.31R
ABINGDON*      PTCLDY    54  12  19 W5        30.28R
BRISTOL        MOCLDY    52  28  39 S3        30.29R
KNOXVILLE      MOCLDY    48  36  63 E6        30.28F
OAK RIDGE      CLOUDY    50  35  56 CALM      30.30S
CROSSVILLE     CLOUDY    48  32  53 CALM      30.25S
NASHVILLE      MOCLDY    50  36  58 S7        30.24S
$$

...KEY TO REMARKS...
VSB - VISIBILITY IN MILES
WCI - WIND CHILL INDEX
HX  - HEAT INDEX

$$


USA.gov is the U.S. government's official web portal to all federal, state and local government web resources and services.